Powrót do katalogu

FENGYUN 1C DEB

AktywnySSO
NORAD 31180·DEBRIS·🇨🇳 China

Wystrzelony May 10, 1999 z Taiyuan Satellite Launch Center

Loading…

Następne Przeloty (najbliższe 24 godziny)

TLE

ŚwieżeSource: Space-Track

Epoka: Sep 13, 2026, 07:36 UTC

1 31180U 99025BJJ 26256.31687020  .00000164  00000-0  96987-4 0  9990
2 31180  99.2554  23.2932 0497068  59.9058 332.7289 13.70692219678285

Śledź FENGYUN 1C DEB w czasie rzeczywistym z AllMySat

Download on the App Store